Location: Bacharowice
(49.9333°N, 19.5833°E)
Time: 11:58:02
(UTC+00:00)

Cosmos 962 Rocket - Pass Details

Date: 11 May 2021
Orbit: 950 x 1000 km, 82.9° (Epoch: 22 June)

Event Time Altitude Azimuth Distance (km) Brightness Sun altitude
Rises 21:11:21 0° 349° (N) 3,642 9.0 -19.3°
Reaches altitude 10° 21:13:51 10° 348° (NNW) 2,690 8.0 -19.5°
Maximum altitude 21:19:59 80° 264° (W) 973 4.5 -19.8°
Enters shadow 21:22:53 33° 182° (S) 1,534 5.0 -20.0°
